Flag for Netherlands Weather past 2 weeks in Zaandam, Netherlands

Now
45 °F

Passing clouds.


Feels Like: 41 °F
Forecast: 41 / 55 °F
Wind: 6 mph from Northeast

Location: Amsterdam Schiphol Airport

Current Time: Apr 21, 2015 at 3:33:43 AM

Latest Report: Apr 21, 2015 at 2:55 AM


Visibility: N/A

Pressure: 30.45 "Hg

Humidity: 87%

Dew point: 41 °F

Location of ZaandamLocation

Historic Weather in Zaandam — Graph

°F

Zaandam temperature yesterday

Maximum temperature yesterday: 61 °F (at 2:55 PM)
Minimum temperature yesterday: 43 °F (at 4:25 AM)
Average temperature yesterday: 52 °F

Past Weeks' High & Low Weather Summary

 TemperatureHumidityPressure
High70 °F (Apr 15, 3:25 PM)100% (Apr 6, 9:25 AM)30.63 "Hg (Apr 6, 9:25 AM)
Low36 °F (Apr 7, 4:55 AM)39% (Apr 14, 1:55 PM)29.89 "Hg (Apr 11, 3:55 AM)
Average49 °F75%30.27 "Hg
* Reported Apr 6 2:25 AM — Apr 21 2:25 AM, Zaandam, Weather by CustomWeather, © 2015

Note: Actual official high and low records may vary slightly from our data, if they occured in-between our weather recording intervals... More about our weather records

Advertising

Zaandam weather history for previous 24 hours

 ConditionsComfort  
Time TempWeatherWind HumidityBarometerVisibility
2:25 AM
Tue, Apr 21
45 °FClear.7 mph87%30.45 "Hg10 mi
1:55 AM45 °FClear.6 mph81%30.45 "Hg10 mi
1:25 AM45 °FClear.7 mph87%30.45 "Hg10 mi
12:55 AM46 °FPassing clouds.6 mph82%30.42 "HgN/A
12:25 AM45 °FClear.6 mph81%30.42 "Hg10 mi
11:55 PM
Mon, Apr 20
46 °FPassing clouds.6 mph76%30.42 "HgN/A
11:25 PM48 °FPassing clouds.7 mph76%30.42 "HgN/A
10:55 PM48 °FPassing clouds.7 mph71%30.45 "HgN/A
10:25 PM50 °FPassing clouds.10 mph67%30.42 "HgN/A
9:55 PM52 °FPassing clouds.12 mph62%30.42 "HgN/A
9:25 PM52 °FSunny.9 mph67%30.42 "Hg10 mi
8:55 PM54 °FSunny.10 mph58%30.42 "Hg10 mi
8:25 PM55 °FPassing clouds.14 mph47%30.42 "HgN/A
7:55 PM57 °FPassing clouds.14 mph44%30.39 "HgN/A
7:25 PM57 °FPassing clouds.12 mph59%30.39 "HgN/A
6:55 PM59 °FPassing clouds.10 mph63%30.39 "HgN/A
6:25 PM59 °FPassing clouds.12 mph59%30.39 "HgN/A
5:55 PM59 °FPassing clouds.10 mph51%30.39 "HgN/A
5:25 PM59 °FPassing clouds.8 mph51%30.42 "HgN/A
4:55 PM59 °FPassing clouds.9 mph45%30.39 "HgN/A
4:25 PM61 °FPassing clouds.10 mph52%30.39 "HgN/A
3:55 PM61 °FPassing clouds.12 mph48%30.42 "HgN/A
3:25 PM61 °FPassing clouds.10 mph45%30.42 "HgN/A
2:55 PM61 °FPassing clouds.10 mph48%30.42 "HgN/A
2:25 PM59 °FPassing clouds.8 mph55%30.42 "HgN/A
1:55 PM59 °FPassing clouds.10 mph48%30.42 "HgN/A
1:25 PM59 °FPassing clouds.12 mph51%30.42 "HgN/A
12:55 PM59 °FPassing clouds.12 mph55%30.42 "HgN/A
12:25 PM57 °FPassing clouds.13 mph59%30.42 "HgN/A
11:55 AM59 °FPassing clouds.12 mph55%30.42 "HgN/A
11:25 AM57 °FPassing clouds.10 mph55%30.42 "HgN/A
10:55 AM55 °FPassing clouds.8 mph59%30.42 "HgN/A
10:25 AM55 °FPassing clouds.7 mph63%30.39 "HgN/A
9:55 AM54 °FPassing clouds.7 mph67%30.39 "HgN/A
9:25 AM52 °FPassing clouds.7 mph72%30.39 "HgN/A
8:55 AM50 °FPassing clouds.9 mph76%30.39 "HgN/A
8:25 AM48 °FSunny.12 mph82%30.36 "Hg10 mi
7:55 AM46 °FSunny.8 mph87%30.36 "Hg10 mi
7:25 AM45 °FPassing clouds.10 mph87%30.36 "HgN/A
6:55 AM45 °FClear.10 mph81%30.33 "Hg10 mi
6:25 AM45 °FClear.10 mph81%30.33 "Hg10 mi
5:55 AM45 °FClear.9 mph81%30.33 "Hg10 mi
5:25 AM45 °FClear.8 mph81%30.33 "Hg10 mi
4:55 AM45 °FClear.8 mph87%30.33 "Hg10 mi
4:25 AM43 °FClear.7 mph87%30.30 "Hg10 mi
3:55 AM45 °FClear.8 mph87%30.30 "Hg10 mi
3:25 AM46 °FClear.9 mph82%30.30 "Hg10 mi
Weather by CustomWeather, © 2015

See weather overviewHow to use our weather pages